Location: Newark
(54.3386°S, 169.8415°W)
Time: 20:56:20
(UTC+00:00)

Transit 2A Rocket - Pass Details

Date: 25 October 2019
Orbit: 594 x 909 km, 66.7° (Epoch: 17 November)

Event Time Altitude Azimuth Distance (km) Brightness Sun altitude
Rises 12:48:22 0° 227° (SW) 3,561 8.7 -19.9°
Reaches altitude 10° 12:51:29 10° 241° (WSW) 2,623 7.8 -19.7°
Enters shadow 12:55:41 21° 284° (WNW) 1,934 6.7 -19.4°
Maximum altitude 12:55:54 21° 287° (WNW) 1,931 - -19.4°
Drops below altitude 10° 13:00:16 10° 334° (NNW) 2,574 - -19.1°
Sets 13:03:18 0° 349° (NNW) 3,474 - -18.9°
